IW9DKU-3 Weather Reports


Display with metric or nautical units.
time (UTC)temp
F
wind
direction
speed
MPH
gust
MPH
rain 1hr
in
rain 24hr
in
rain mn
in
humidity
%
barometer
mb
20260507223917 68 0.0 0.0 0.00 0.00 0.00 64 1019.8
20260507221913 68 0.0 0.0 0.00 0.00 0.00 64 1019.1
20260507215909 68 0.0 0.0 0.00 0.00 0.00 65 1019.0
20260507213906 68 0.0 0.0 0.00 0.00 0.00 65 1019.1
20260507211902 68 0.0 0.0 0.00 0.00 0.00 64 1019.0
20260507205858 68 0.0 0.0 0.00 0.00 0.00 64 1018.8
20260507203854 68 0.0 0.0 0.00 0.00 0.00 64 1019.6
20260507201850 68 0.0 0.0 0.00 0.00 0.00 64 1019.4
20260507195847 68 0.0 0.0 0.00 0.00 0.00 64 1018.9
20260507193843 68 0.0 0.0 0.00 0.00 0.00 63 1019.1
20260507191839 68 0.0 0.0 0.00 0.00 0.00 63 1018.9
20260507183832 68 0.0 0.0 0.00 0.00 0.00 63 1018.7
20260507175824 69 0.0 0.0 0.00 0.00 0.00 62 1018.7
20260507173820 69 0.0 0.0 0.00 0.00 0.00 62 1018.3
20260507165812 69 0.0 0.0 0.00 0.00 0.00 61 1018.9
20260507163808 69 0.0 0.0 0.00 0.00 0.00 61 1018.9
20260507161803 69 0.0 0.0 0.00 0.00 0.00 61 1018.6
20260507155759 69 0.0 0.0 0.00 0.00 0.00 60 1018.9
20260507153755 69 0.0 0.0 0.00 0.00 0.00 60 1019.0
20260507151750 69 0.0 0.0 0.00 0.00 0.00 60 1019.3
20260507145746 69 0.0 0.0 0.00 0.00 0.00 59 1019.4
20260507143741 69 0.0 0.0 0.00 0.00 0.00 59 1019.4
20260507135733 70 0.0 0.0 0.00 0.00 0.00 59 1020.0
20260507133729 70 0.0 0.0 0.00 0.00 0.00 58 1020.1
20260507131726 70 0.0 0.0 0.00 0.00 0.00 58 1020.4
20260507125722 70 0.0 0.0 0.00 0.00 0.00 57 1021.0
20260507123718 70 0.0 0.0 0.00 0.00 0.00 57 1021.0
20260507121714 70 0.0 0.0 0.00 0.00 0.00 56 1021.4
20260507115711 71 0.0 0.0 0.00 0.00 0.00 54 1021.5
20260507113707 71 0.0 0.0 0.00 0.00 0.00 54 1021.5
20260507111703 71 0.0 0.0 0.00 0.00 0.00 50 1021.8
20260507105659 71 0.0 0.0 0.00 0.00 0.00 51 1022.0
20260507103655 71 0.0 0.0 0.00 0.00 0.00 53 1022.1
20260507101652 71 0.0 0.0 0.00 0.00 0.00 52 1022.2
20260507095648 71 0.0 0.0 0.00 0.00 0.00 52 1022.4
20260507093644 71 0.0 0.0 0.00 0.00 0.00 53 1022.5
20260507091640 70 0.0 0.0 0.00 0.00 0.00 54 1022.4
20260507083633 70 0.0 0.0 0.00 0.00 0.00 54 1022.4
20260507081629 69 0.0 0.0 0.00 0.00 0.00 54 1022.1
20260507075625 69 0.0 0.0 0.00 0.00 0.00 56 1022.2
20260507073622 69 0.0 0.0 0.00 0.00 0.00 57 1022.3
20260507071618 68 0.0 0.0 0.00 0.00 0.00 60 1022.3
20260507065614 68 0.0 0.0 0.00 0.00 0.00 60 1022.4
20260507063610 68 0.0 0.0 0.00 0.00 0.00 61 1022.2
20260507062554 67 0.0 0.0 0.00 0.00 0.00 61 1022.1
20260507061607 67 0.0 0.0 0.00 0.00 0.00 61 1022.1
20260507055603 67 0.0 0.0 0.00 0.00 0.00 62 1022.3
20260507053559 67 0.0 0.0 0.00 0.00 0.00 61 1022.4
20260507053149 67 0.0 0.0 0.00 0.00 0.00 57 1021.6
20260507051555 67 0.0 0.0 0.00 0.00 0.00 61 1021.9
20260507045552 67 0.0 0.0 0.00 0.00 0.00 61 1021.8
20260507043548 67 0.0 0.0 0.00 0.00 0.00 58 1021.5
20260507041544 67 0.0 0.0 0.00 0.00 0.00 57 1021.6
20260507035540 67 0.0 0.0 0.00 0.00 0.00 56 1021.6
20260507033536 67 0.0 0.0 0.00 0.00 0.00 56 1021.9
20260507031533 67 0.0 0.0 0.00 0.00 0.00 56 1021.9
20260507025529 67 0.0 0.0 0.00 0.00 0.00 55 1021.8
20260507023525 67 0.0 0.0 0.00 0.00 0.00 52 1021.6
20260507021521 67 0.0 0.0 0.00 0.00 0.00 56 1021.4
20260507015518 67 0.0 0.0 0.00 0.00 0.00 55 1021.4
20260507013514 67 0.0 0.0 0.00 0.00 0.00 54 1021.8
20260507011510 67 0.0 0.0 0.00 0.00 0.00 59 1021.9
20260507005506 67 0.0 0.0 0.00 0.00 0.00 60 1021.8
20260507003503 67 0.0 0.0 0.00 0.00 0.00 60 1021.9
20260507001459 67 0.0 0.0 0.00 0.00 0.00 61 1022.2
20260506235455 67 0.0 0.0 0.00 0.00 0.00 61 1022.3
20260506233451 67 0.0 0.0 0.00 0.00 0.00 60 1022.3
20260506231448 68 0.0 0.0 0.00 0.00 0.00 59 1022.4
20260506225444 68 0.0 0.0 0.00 0.00 0.00 59 1022.5